Back to catalog

SL-12 DEB

LostHEO
NORAD 41696·DEBRIS·🇷🇺 Russia

Launched Mar 1, 2010 from Baikonur Cosmodrome

Loading…

Next Passes (next 24 hours)

TLE

StaleSource: Space-Track

Epoch: Jun 23, 2026, 08:36 UTC

1 41696U 10007N   26174.35901916  .00228048  00000-0  12697-1 0  9998
2 41696  63.5013 205.0248 5277081  23.7711 353.6892  5.23607850180122

Track SL-12 DEB in real time with AllMySat

Download on the App Store